TimeEDT,TemperatureF,Dew PointF,Humidity,Sea Level PressureIn,VisibilityMPH,Wind Direction,Wind SpeedMPH,Gust SpeedMPH,PrecipitationIn,Events,Conditions,WindDirDegrees,DateUTC
12:54 AM,72.0,66.9,84,29.82,10.0,SW,10.4,-,N/A,,Mostly Cloudy,230,2013-08-31 04:54:00
1:54 AM,71.1,66.9,87,29.81,10.0,SW,11.5,-,N/A,,Mostly Cloudy,220,2013-08-31 05:54:00
2:54 AM,71.1,66.0,84,29.81,10.0,SW,9.2,-,N/A,,Mostly Cloudy,230,2013-08-31 06:54:00
3:54 AM,69.1,66.0,90,29.80,8.0,SSW,9.2,-,N/A,,Mostly Cloudy,200,2013-08-31 07:54:00
4:45 AM,69.8,66.2,88,29.80,8.0,SSW,10.4,-,N/A,,Mostly Cloudy,210,2013-08-31 08:45:00
4:54 AM,70.0,66.9,90,29.81,7.0,SSW,9.2,-,N/A,,Mostly Cloudy,210,2013-08-31 08:54:00
5:54 AM,71.1,68.0,90,29.83,6.0,NW,8.1,-,N/A,,Mostly Cloudy,310,2013-08-31 09:54:00
6:45 AM,71.6,68.0,88,29.82,5.0,SW,8.1,-,N/A,,Overcast,220,2013-08-31 10:45:00
6:54 AM,72.0,68.0,87,29.83,5.0,SW,9.2,-,N/A,,Overcast,220,2013-08-31 10:54:00
7:54 AM,71.1,69.1,93,29.84,4.0,South,3.5,-,0.00,Rain,Light Rain,170,2013-08-31 11:54:00
8:54 AM,71.1,69.1,93,29.83,4.0,South,4.6,-,0.00,,Overcast,180,2013-08-31 12:54:00
9:24 AM,73.4,69.8,88,29.84,5.0,South,6.9,-,N/A,,Mostly Cloudy,190,2013-08-31 13:24:00
9:54 AM,75.0,70.0,84,29.83,7.0,SSW,6.9,-,N/A,,Mostly Cloudy,210,2013-08-31 13:54:00
10:54 AM,77.0,70.0,79,29.83,8.0,SSW,5.8,-,N/A,,Mostly Cloudy,210,2013-08-31 14:54:00
11:54 AM,81.0,70.0,69,29.82,10.0,SW,9.2,-,N/A,,Mostly Cloudy,220,2013-08-31 15:54:00
12:45 PM,80.6,69.8,70,29.82,8.0,SSW,9.2,-,N/A,,Overcast,210,2013-08-31 16:45:00
12:54 PM,80.1,69.1,69,29.82,8.0,SW,11.5,-,N/A,,Overcast,220,2013-08-31 16:54:00
1:54 PM,79.0,71.1,77,29.81,8.0,SSW,6.9,-,0.00,Rain,Light Rain,200,2013-08-31 17:54:00
2:13 PM,78.8,71.6,78,29.80,8.0,SSW,8.1,-,0.00,,Overcast,210,2013-08-31 18:13:00
2:54 PM,80.1,71.1,74,29.80,8.0,SSW,8.1,-,0.00,,Overcast,210,2013-08-31 18:54:00
3:54 PM,81.0,71.1,72,29.80,8.0,SSW,9.2,-,N/A,,Overcast,200,2013-08-31 19:54:00
4:54 PM,80.1,70.0,71,29.79,8.0,SSW,10.4,-,N/A,,Overcast,210,2013-08-31 20:54:00
5:04 PM,78.8,69.8,74,29.79,8.0,SSW,13.8,-,N/A,,Overcast,200,2013-08-31 21:04:00
5:54 PM,77.0,70.0,79,29.79,7.0,SSW,12.7,-,N/A,,Overcast,200,2013-08-31 21:54:00
6:54 PM,75.0,70.0,84,29.79,7.0,SSW,12.7,-,N/A,,Overcast,200,2013-08-31 22:54:00
7:54 PM,73.9,70.0,87,29.80,7.0,SSW,9.2,-,N/A,,Mostly Cloudy,210,2013-08-31 23:54:00
8:54 PM,73.0,69.1,87,29.81,7.0,SSW,8.1,-,N/A,,Mostly Cloudy,200,2013-09-01 00:54:00
9:54 PM,73.0,69.1,87,29.82,7.0,South,9.2,-,N/A,,Mostly Cloudy,190,2013-09-01 01:54:00
10:54 PM,73.0,69.1,87,29.81,7.0,SSW,11.5,-,N/A,,Overcast,200,2013-09-01 02:54:00
11:54 PM,73.9,69.1,85,29.81,7.0,SSW,12.7,-,N/A,,Mostly Cloudy,210,2013-09-01 03:54:00